Wind_Speed
18 18 18 18 17 18 19 19 19 18 18 18 18 19 19 19 18 18 19 19 20 21 22 22 22 23 23 23 23 23 24 24 24 26 28 28 28 29 29 30 31 31 32 33
19 19 20 19 19 19 20 20 20 20 19 19 19 19 19 19 19 19 19 19 19 19 20 22 22 23 24 23 22 23 23 24 24 25 26 27 27 28 27 28 29 30 31 32
21 21 21 20 20 20 20 20 20 20 19 19 19 20 20 20 20 20 20 20 20 20 21 22 22 23 24 24 23 23 24 24 25 26 26 26 26 26 27 27 28 28 29 30
23 22 22 21 21 21 21 20 20 21 21 21 20 20 21 21 21 20 20 21 21 20 20 20 21 23 23 24 24 24 24 25 26 26 26 26 27 27 27 28 28 29 29 29
22 23 23 22 21 21 21 20 20 21 21 22 22 22 21 21 21 21 21 20 21 21 20 21 21 22 24 24 24 25 25 25 26 26 26 26 27 27 27 27 27 28 29 29
23 23 23 22 22 21 22 21 20 21 21 20 21 21 20 21 21 22 21 21 21 21 21 21 22 23 24 25 25 26 26 26 27 27 26 26 27 27 27 27 27 27 28 29
24 23 22 22 22 22 22 21 21 21 21 21 20 20 20 20 20 21 21 21 21 21 21 22 23 23 24 25 26 27 27 27 27 27 27 28 28 28 28 29 29 29 30 31
23 23 22 22 22 22 22 21 21 21 22 22 21 21 20 20 21 21 22 22 21 22 22 22 23 23 24 24 25 26 27 28 28 28 29 29 29 29 29 30 30 31 31 31
23 22 22 22 23 22 22 22 22 22 22 23 22 21 20 20 21 21 21 22 22 22 22 23 23 24 24 25 25 25 26 27 28 28 29 29 29 29 30 30 30 31 31 31
22 21 21 21 22 22 22 22 22 22 23 23 22 22 22 21 22 22 22 22 23 23 23 23 23 24 24 25 25 25 25 26 27 27 28 29 29 30 30 31 31 31 31 31
22 21 20 20 21 22 22 23 23 23 23 23 23 23 23 22 23 23 23 23 24 24 24 24 24 24 25 25 26 26 26 26 26 27 27 28 29 30 30 31 31 31 31 31
22 22 22 21 22 23 23 23 23 23 23 23 23 23 23 23 23 23 23 24 25 25 26 26 26 26 26 27 27 28 28 27 28 28 29 29 29 29 30 32 32 32 32 32
22 22 21 22 22 23 23 24 24 24 24 24 23 23 23 23 23 23 24 24 25 26 27 27 28 28 28 28 29 29 30 29 29 29 30 31 31 31 31 32 33 33 33 33
22 22 22 23 23 24 24 25 25 25 25 24 23 23 23 24 25 25 25 25 26 26 27 28 29 29 29 30 30 30 30 31 31 31 31 32 33 33 32 33 33 33 34 33
24 24 23 24 24 25 25 25 26 26 25 25 24 24 24 25 26 26 26 27 27 27 27 28 29 30 30 30 30 31 31 31 32 32 32 33 33 33 33 33 33 32 32 32
25 24 24 24 24 25 25 25 26 26 26 25 25 25 26 26 26 27 27 28 29 29 29 29 29 29 29 29 30 30 31 31 32 32 32 32 32 32 32 32 32 32 31 31
24 23 23 24 24 25 25 26 26 26 26 26 26 26 27 27 27 27 28 29 29 29 29 29 29 29 29 29 30 29 30 30 31 32 32 32 32 32 32 32 32 31 31 30
25 24 24 24 24 24 24 25 25 25 25 25 26 26 27 27 27 28 29 29 29 29 29 29 29 29 29 30 30 30 30 30 30 31 31 31 32 32 32 32 31 30 29 29
26 25 25 25 24 25 25 24 25 25 25 25 26 26 27 27 28 28 29 29 29 29 29 29 29 29 29 30 30 30 29 29 30 30 30 29 30 30 31 31 30 28 28 27
26 26 26 26 26 26 26 25 25 25 25 25 26 27 27 27 27 28 28 28 28 28 29 29 29 29 30 30 30 30 29 29 29 29 28 28 29 29 29 29 28 27 27 27
27 27 27 28 27 27 26 26 25 25 26 26 26 27 27 27 27 27 27 26 27 28 28 28 29 29 29 29 30 29 29 29 28 28 28 28 28 28 28 28 27 27 26 26
28 28 28 29 28 27 26 26 26 26 26 26 27 27 27 27 27 27 27 27 27 27 28 28 28 28 28 28 28 28 28 28 28 28 28 28 27 27 27 27 27 26 26 26
28 28 28 28 28 27 27 27 27 27 27 26 26 26 26 26 26 25 25 26 26 27 27 28 27 27 27 27 28 28 28 28 28 28 28 27 27 27 27 26 25 25 24 24
27 28 28 27 27 27 27 26 26 26 26 26 25 25 25 25 25 24 24 24 25 25 26 27 27 27 27 27 27 27 28 28 28 28 27 27 27 26 25 24 23 23 23 22
27 27 27 27 27 26 26 25 25 25 25 25 24 24 24 24 24 24 24 24 25 25 26 26 26 27 27 27 27 28 28 28 28 28 27 27 26 25 24 23 22 22 22 22
28 28 27 27 26 26 25 25 25 25 25 25 24 24 24 23 23 24 24 25 25 26 26 26 26 27 27 27 28 28 28 28 28 28 27 27 26 25 24 23 22 22 22 22
28 28 27 27 26 25 25 25 25 25 24 24 23 24 24 24 24 25 25 25 26 26 27 27 27 27 27 27 28 27 27 27 27 26 26 25 25 24 24 23 23 22 22 22
Wind_Direction
292 292 290 289 286 285 285 285 287 289 287 287 285 284 282 279 276 274 272 270 270 269 267 266 265 263 263 264 262 262 260 259 259 261 263 265 267 267 268 268 267 267 268 268
291 290 289 287 284 282 284 284 285 286 285 284 280 282 282 278 275 272 272 271 271 272 269 267 266 264 264 266 265 263 261 259 262 264 266 267 268 268 268 267 267 267 268 269
290 289 289 288 289 288 286 284 285 286 286 283 282 282 282 279 276 273 271 270 270 271 270 268 268 267 265 265 266 266 264 261 263 266 266 267 268 268 268 268 268 269 269 270
293 291 289 292 290 290 288 286 284 282 281 281 282 281 280 279 276 272 270 269 269 270 270 269 268 267 266 266 265 265 266 265 266 266 265 268 268 269 270 268 268 268 269 271
297 295 293 291 291 290 288 286 283 282 281 281 281 280 278 276 274 271 269 268 268 269 269 269 269 267 265 264 264 264 265 266 267 266 265 267 267 269 268 268 269 270 269 271
296 297 297 295 292 289 287 285 283 282 282 284 283 281 278 274 273 270 267 266 267 268 268 269 270 270 268 263 262 263 265 266 267 267 267 266 267 269 271 272 273 274 273 273
293 294 295 296 295 291 287 285 282 280 280 282 283 282 280 276 272 269 267 266 267 269 269 270 271 272 268 264 262 263 264 266 267 267 268 269 271 273 274 275 276 277 276 275
292 291 293 295 295 292 288 283 282 282 282 282 282 282 280 278 276 273 270 266 267 268 270 272 273 274 271 269 267 267 266 267 268 268 269 272 273 274 275 276 276 277 277 276
291 291 291 292 292 291 287 284 283 283 283 283 282 282 279 278 276 275 276 272 269 269 270 273 274 274 272 271 271 270 269 269 269 269 270 271 272 274 276 277 278 277 277 277
293 292 291 290 289 288 287 285 284 283 283 283 283 281 279 277 276 275 276 275 273 272 272 274 275 276 276 274 272 273 274 272 272 271 271 271 273 275 277 278 279 279 278 278
294 292 291 289 288 287 285 286 287 286 284 282 282 281 279 277 275 275 276 276 275 275 274 275 277 276 275 275 274 274 275 274 272 272 272 273 275 277 279 280 282 281 280 279
295 294 292 289 289 288 288 287 288 288 286 284 283 280 278 278 277 276 275 276 277 275 275 275 276 277 277 276 275 275 276 275 274 274 273 275 277 277 278 280 281 280 280 281
293 291 289 288 289 289 289 288 287 288 288 285 284 282 279 277 277 276 277 277 277 276 275 275 276 278 278 277 276 276 276 275 275 275 275 275 277 278 279 280 281 281 280 281
290 289 288 289 289 289 288 288 287 287 287 285 283 282 280 277 276 276 277 278 278 278 277 277 277 278 278 277 277 277 276 276 276 277 277 276 277 279 279 281 281 281 280 280
290 288 289 290 290 289 288 288 287 287 286 285 284 282 281 279 277 276 276 277 278 279 280 281 281 280 280 279 279 278 278 278 278 279 279 279 279 279 280 281 282 281 280 279
291 289 289 290 291 291 289 288 287 287 286 285 283 283 283 282 278 277 278 278 280 282 283 282 282 281 281 280 280 279 279 279 279 280 281 281 279 279 280 281 282 281 280 279
293 291 290 291 292 291 290 289 289 287 286 286 285 283 283 282 280 279 279 280 281 283 283 283 283 282 282 281 281 281 281 280 280 280 281 281 281 279 280 280 281 280 280 279
294 293 292 293 294 294 293 291 291 289 288 286 286 284 283 281 279 278 279 280 281 282 283 283 283 284 284 283 283 283 283 283 283 282 282 282 281 280 280 280 280 279 278 278
293 292 292 293 294 295 294 294 293 292 290 288 287 286 284 282 281 279 280 281 281 282 282 282 283 285 286 286 285 284 283 284 285 284 284 283 282 282 281 282 280 277 276 276
292 291 291 291 292 294 293 293 294 293 292 290 289 288 286 284 283 281 281 282 282 282 282 282 283 284 285 286 285 284 283 284 285 285 285 284 283 283 283 282 280 277 277 277
289 288 289 291 292 293 293 294 294 294 292 291 289 288 287 285 283 282 281 282 282 282 282 283 284 285 285 285 284 284 283 284 285 285 285 284 283 283 283 281 279 277 277 277
288 288 288 290 292 292 292 293 294 293 292 292 291 289 288 287 285 283 282 282 283 284 284 285 285 285 285 285 284 284 284 284 285 285 285 285 284 283 281 280 278 277 276 277
288 289 290 291 291 290 290 291 292 292 292 293 292 290 289 289 287 285 284 284 284 285 285 285 285 286 286 285 285 285 284 284 284 284 284 284 284 283 281 279 277 276 276 275
290 291 292 292 292 290 289 289 290 291 292 292 292 291 291 290 289 286 285 285 287 287 287 286 286 286 287 287 286 286 285 285 284 283 283 283 283 282 281 279 277 275 275 275
292 292 292 293 291 290 288 288 289 290 291 292 291 290 291 292 292 290 288 287 287 288 289 289 288 287 287 287 287 287 286 285 284 283 282 282 281 281 279 276 274 273 273 273
290 291 291 291 290 288 287 287 289 290 290 291 291 291 291 292 294 293 291 290 289 290 290 291 290 289 288 288 288 287 286 285 284 283 282 280 279 278 276 273 272 271 271 272
288 290 290 289 287 287 287 287 288 289 290 291 292 292 293 294 295 296 294 292 290 290 290 290 290 290 289 289 289 288 288 287 285 284 282 279 277 276 273 271 270 270 270 270
Height
5650 5648 5647 5645 5644 5642 5640 5638 5636 5635 5633 5633 5631 5630 5628 5628 5627 5626 5626 5626 5626 5625 5626 5626 5626 5627 5627 5628 5628 5628 5628 5629 5629 5630 5631 5631 5631 5631 5631 5631 5632 5632 5632 5632
5646 5644 5641 5640 5638 5636 5635 5633 5631 5630 5629 5627 5625 5624 5623 5622 5621 5621 5621 5620 5620 5620 5619 5620 5620 5621 5621 5621 5622 5622 5622 5622 5623 5623 5623 5624 5624 5623 5623 5623 5624 5623 5623 5623
5640 5638 5635 5635 5633 5631 5629 5628 5626 5624 5624 5621 5620 5619 5617 5616 5616 5615 5615 5615 5614 5614 5613 5613 5614 5614 5615 5615 5615 5615 5615 5615 5616 5616 5616 5616 5616 5616 5615 5615 5615 5615 5615 5615
5633 5632 5630 5632 5627 5625 5623 5622 5620 5618 5617 5615 5614 5613 5612 5611 5610 5609 5609 5609 5609 5608 5607 5607 5607 5608 5608 5608 5608 5608 5608 5608 5608 5608 5608 5608 5608 5608 5607 5607 5607 5607 5607 5607
5627 5624 5623 5624 5621 5618 5616 5615 5614 5612 5611 5609 5608 5607 5606 5605 5603 5603 5603 5603 5602 5602 5601 5601 5601 5601 5601 5601 5601 5601 5600 5601 5601 5600 5600 5601 5601 5600 5600 5599 5599 5598 5598 5598
5621 5618 5617 5618 5615 5611 5610 5609 5608 5606 5604 5602 5601 5601 5601 5599 5597 5597 5596 5596 5595 5595 5594 5594 5594 5593 5593 5593 5593 5593 5592 5593 5593 5593 5593 5593 5593 5592 5591 5591 5591 5590 5589 5589
5614 5611 5610 5610 5607 5605 5604 5604 5601 5599 5597 5596 5595 5594 5593 5592 5591 5590 5590 5589 5588 5588 5587 5587 5587 5586 5585 5585 5585 5585 5585 5584 5584 5584 5584 5584 5584 5584 5583 5583 5582 5581 5581 5580
5608 5605 5607 5603 5600 5599 5597 5595 5594 5592 5591 5589 5588 5587 5586 5585 5584 5583 5583 5582 5581 5580 5580 5580 5579 5579 5578 5577 5577 5577 5576 5576 5576 5576 5576 5575 5575 5575 5574 5574 5573 5572 5572 5571
5602 5602 5599 5596 5594 5591 5590 5588 5587 5586 5584 5583 5581 5580 5579 5579 5578 5577 5576 5575 5574 5574 5573 5572 5572 5571 5570 5569 5569 5568 5568 5568 5567 5567 5567 5567 5566 5566 5565 5565 5564 5563 5562 5561
5595 5594 5592 5589 5587 5585 5583 5582 5580 5579 5578 5576 5575 5574 5573 5572 5571 5570 5569 5568 5567 5567 5566 5565 5564 5563 5563 5562 5561 5561 5560 5560 5559 5558 5558 5558 5557 5557 5556 5555 5554 5553 5553 5552
5587 5586 5584 5582 5580 5578 5577 5575 5574 5572 5571 5569 5568 5567 5566 5565 5564 5563 5562 5561 5560 5559 5559 5558 5557 5556 5555 5554 5553 5553 5552 5551 5551 5550 5549 5549 5548 5547 5546 5546 5544 5544 5543 5542
5581 5579 5577 5575 5573 5571 5570 5568 5567 5565 5564 5562 5561 5560 5559 5557 5557 5556 5555 5554 5553 5552 5551 5550 5549 5548 5547 5546 5545 5545 5544 5543 5542 5541 5541 5540 5539 5538 5537 5536 5535 5533 5532 5532
5574 5572 5570 5568 5566 5564 5563 5561 5559 5558 5556 5555 5553 5552 5551 5550 5549 5548 5548 5547 5545 5544 5543 5542 5541 5540 5539 5538 5537 5536 5535 5534 5533 5533 5532 5531 5530 5529 5528 5527 5525 5524 5522 5521
5566 5564 5563 5561 5560 5557 5555 5554 5552 5550 5549 5547 5545 5544 5543 5542 5541 5540 5540 5539 5537 5536 5535 5534 5533 5531 5530 5529 5528 5527 5526 5525 5524 5523 5522 5521 5521 5520 5518 5517 5515 5514 5512 5511
5559 5557 5556 5554 5552 5550 5548 5546 5545 5543 5541 5540 5538 5537 5536 5535 5533 5532 5531 5530 5529 5528 5527 5525 5524 5522 5521 5520 5519 5518 5517 5516 5515 5514 5513 5512 5511 5510 5508 5507 5505 5504 5502 5501
5552 5550 5548 5547 5545 5543 5541 5539 5537 5535 5534 5532 5531 5529 5528 5526 5525 5524 5523 5522 5521 5519 5518 5516 5514 5513 5512 5510 5509 5508 5507 5506 5505 5504 5503 5502 5501 5499 5498 5497 5495 5494 5492 5491
5544 5543 5541 5539 5537 5535 5533 5531 5529 5527 5526 5524 5523 5521 5520 5518 5517 5515 5514 5513 5512 5510 5508 5507 5505 5504 5502 5501 5500 5499 5498 5497 5495 5494 5493 5492 5491 5489 5488 5486 5485 5483 5482 5481
5536 5535 5533 5531 5529 5527 5525 5523 5521 5519 5517 5516 5514 5513 5511 5510 5508 5507 5505 5504 5503 5501 5500 5498 5496 5495 5493 5492 5491 5490 5488 5487 5486 5485 5483 5482 5480 5479 5478 5476 5475 5473 5472 5471
5528 5526 5525 5523 5521 5519 5517 5515 5513 5511 5510 5508 5506 5504 5503 5501 5499 5498 5496 5495 5494 5492 5491 5489 5487 5486 5484 5483 5481 5480 5479 5478 5476 5475 5473 5472 5470 5469 5468 5466 5465 5463 5462 5461
5519 5518 5516 5514 5513 5511 5509 5507 5505 5503 5501 5500 5498 5496 5494 5492 5491 5489 5487 5486 5485 5483 5481 5480 5479 5477 5475 5474 5472 5471 5470 5468 5467 5465 5464 5462 5461 5459 5458 5456 5455 5454 5453 5452
5511 5509 5507 5506 5504 5503 5501 5499 5497 5495 5493 5491 5489 5487 5485 5483 5481 5480 5478 5477 5476 5474 5472 5471 5470 5468 5466 5465 5463 5462 5460 5459 5458 5456 5454 5453 5451 5450 5448 5447 5446 5445 5444 5443
5502 5500 5499 5497 5495 5494 5492 5490 5489 5487 5485 5482 5480 5478 5476 5474 5472 5471 5469 5468 5467 5465 5463 5462 5460 5459 5457 5456 5454 5453 5451 5450 5448 5447 5445 5444 5442 5441 5439 5438 5437 5436 5435 5435
5493 5491 5490 5488 5487 5485 5483 5481 5480 5478 5476 5474 5472 5469 5467 5465 5463 5462 5461 5459 5458 5456 5455 5453 5451 5450 5448 5447 5445 5444 5443 5441 5439 5438 5436 5435 5433 5432 5430 5429 5428 5427 5427 5426
5484 5483 5481 5479 5478 5476 5474 5473 5471 5469 5467 5465 5463 5461 5459 5457 5455 5453 5452 5450 5449 5448 5446 5444 5443 5441 5440 5438 5436 5435 5433 5432 5430 5429 5427 5426 5424 5423 5421 5420 5420 5419 5419 5418
5475 5474 5472 5470 5469 5467 5466 5464 5463 5461 5459 5457 5455 5453 5451 5449 5447 5445 5444 5442 5441 5440 5438 5436 5434 5432 5431 5429 5427 5426 5424 5422 5421 5419 5418 5416 5415 5414 5413 5412 5412 5411 5411 5411
5467 5465 5463 5462 5460 5459 5457 5456 5454 5453 5451 5449 5447 5445 5443 5441 5439 5438 5436 5434 5433 5431 5429 5428 5426 5424 5422 5420 5418 5416 5414 5413 5411 5410 5409 5407 5406 5405 5405 5404 5404 5403 5403 5403
5457 5456 5454 5453 5451 5450 5449 5447 5446 5445 5443 5441 5440 5438 5436 5434 5432 5430 5428 5426 5424 5422 5421 5419 5417 5415 5413 5411 5409 5407 5405 5403 5402 5401 5399 5398 5397 5397 5396 5396 5396 5395 5395 5395